Hourly Data Report for May 28, 2003

TORONTO CITY
ONTARIO

43°40'00.000" N
79°24'00.000" W
112.50 m
6158355
71508
XTO

Download Data

Hourly Data (May 2003)
Hourly Data Report for May 28, 2003
TIME
LST
Temp Definition
°C
Dew Point Definition
°C
Rel Hum Definition
%
Precip. Amount Definition
mm

Wind Dir Definition
10's deg

Wind Spd Definition
km/h
Visibility Definition
km
Stn Press Definition
kPa
Hmdx Definition


Wind Chill Definition


Weather Definition


00:00 10.7 8.6 87   LegendMM LegendMM LegendMM 100.02     LegendNANA
01:00 10.6 9.2 91   LegendMM LegendMM LegendMM 99.96     LegendNANA
02:00 11.8 10.4 91   LegendMM LegendMM LegendMM 99.92     LegendNANA
03:00 12.0 10.6 91   LegendMM LegendMM LegendMM 99.89     LegendNANA
04:00 11.7 10.1 90   LegendMM LegendMM LegendMM 99.85     LegendNANA
05:00 11.7 9.6 87   LegendMM LegendMM LegendMM 99.80     LegendNANA
06:00 12.0 10.1 88   LegendMM LegendMM LegendMM 99.81     LegendNANA
07:00 13.7 10.3 80   LegendMM LegendMM LegendMM 99.78     LegendNANA
08:00 16.4 11.8 74   LegendMM LegendMM LegendMM 99.77     LegendNANA
09:00 17.7 12.8 73   LegendMM LegendMM LegendMM 99.71     LegendNANA
10:00 18.0 12.7 71   LegendMM LegendMM LegendMM 99.67     LegendNANA
11:00 19.5 12.3 63   LegendMM LegendMM LegendMM 99.62     LegendNANA
12:00 18.1 10.7 62   LegendMM LegendMM LegendMM 99.56     LegendNANA
13:00 19.0 11.6 62   LegendMM LegendMM LegendMM 99.48     LegendNANA
14:00 19.6 11.6 60   LegendMM LegendMM LegendMM 99.41     LegendNANA
15:00 19.5 11.0 58   LegendMM LegendMM LegendMM 99.34     LegendNANA
16:00 18.2 10.6 61   LegendMM LegendMM LegendMM 99.31     LegendNANA
17:00 17.7 13.0 74   LegendMM LegendMM LegendMM 99.26     LegendNANA
18:00 17.2 12.5 74   LegendMM LegendMM LegendMM 99.25     LegendNANA
19:00 17.3 13.2 77   LegendMM LegendMM LegendMM 99.22     LegendNANA
20:00 17.1 12.8 76   LegendMM LegendMM LegendMM 99.18     LegendNANA
21:00 17.5 12.0 70   LegendMM LegendMM LegendMM 99.19     LegendNANA
22:00 15.9 11.9 77   LegendMM LegendMM LegendMM 99.16     LegendNANA
23:00 15.5 12.3 81   LegendMM LegendMM LegendMM 99.16     LegendNANA

Notes on Data Quality.

Legend

  • E = Estimated
  • M = Missing
  • NA = Not Available*
  • [empty] = Indicates an unobserved value
Date modified: